Content
SEND FEEDBACK

Daily
Averages
Monthly
Summary
France

CAEN, FRANCE


Home > Europe > France
Elevation: 220 feet     Latitude: 49 11N     Longitude: 000 27W

WEATHER
 
SELECT A DAY
Number of Records: 221,495;   Date Range: 7/1/96 - 9/29/14
 
SHARE

PRINT THIS DATA

[ ← Previous Day ]
WEATHER ALMANAC - JANUARY 11, 2014
[ Next Day → ]
[ °C ]   °F
Weather ElementAverageHighLow
Temperature42.8 °F50 °F (1:30 pm)33.8 °F (11:00 pm)
Dewpoint39.7 °F46.4 °F (11:30 am)32 °F (11:00 pm)
Humidity88.1 %100 % (6:30 am)60 % (4:00 pm)
Barometer30.12 in30.27 in (11:00 pm)29.98 in (2:30 am)
Wind Speed5 mph11.5 mph (12:00 am)
Weather ElementAverage
Visibility7.6 mi
Wind DirectionS (178.4 °)

Weather ElementTotal
Precipitation---
Heating Degree Days23.1 (Base 65)
Averaged from 71 records on January 11, 2014
WEATHER CONDITIONS BREAKOUT
WIND DIRECTION BREAKOUT
WEATHER BY HOUR - JANUARY 11, 2014
[ °C ]   °F
Local TimeTemperatureDewpointHumidityBarometerVisibilityWind DirectionWind SpeedGust SpeedPrecipitationEventsConditions
12:00 AM42.8 °F41.0 °F93 %30.01 in3.7 miSSE (150°)11.5 mphOvercast
12:30 AM42.8 °F41.0 °F93 %30.01 in3.7 miSSE (160°)9.2 mphOvercast
1:00 AM42.0 °F41.0 °F94 %30.02 in3.0 miSSE (160°)5.8 mphClear
1:00 AM42.8 °F41.0 °F93 %30.01 in3.1 miSSE (160°)5.8 mphOvercast
1:30 AM42.8 °F41.0 °F93 %30.01 in3.1 miVariable3.5 mphRainLight Rain
2:00 AM42.0 °F41.0 °F94 %30.01 in2.0 miSouth (170°)6.9 mphRainLight Rain
2:00 AM42.8 °F41.0 °F93 %30.01 inSouth (170°)6.9 mphRainLight Rain
2:30 AM42.8 °F41.0 °F93 %29.98 inSouth (170°)3.5 mphOvercast
3:00 AM42.8 °F41.0 °F93 %29.98 in3.1 miSouth (180°)8.1 mphLight Drizzle
3:00 AM42.0 °F42.0 °F98 %30.01 in3.0 miSouth (180°)8.1 mphClear
3:30 AM42.8 °F41.0 °F93 %30.01 in4.3 miSouth (190°)5.8 mphRainLight Rain
4:00 AM42.0 °F41.0 °F97 %30.01 in4.0 miSouth (170°)6.9 mphRainLight Rain
4:00 AM42.8 °F41.0 °F93 %29.98 in3.7 miSouth (170°)6.9 mphRainLight Rain
4:30 AM42.8 °F41.0 °F93 %29.98 in4.3 miSouth (190°)4.6 mph
5:00 AM42.0 °F41.0 °F94 %30.01 in4.0 miWSW (240°)1.2 mphClear
5:00 AM42.8 °F41.0 °F93 %29.98 in3.7 miCalmOvercast
5:30 AM42.8 °F41.0 °F93 %29.98 in3.1 miCalmOvercast
6:00 AM41.0 °F39.2 °F93 %29.98 inVariable2.3 mphMist
6:00 AM40.0 °F39.0 °F96 %30.01 in3.0 miSouth (190°)2.3 mphScattered Clouds
6:30 AM39.2 °F39.2 °F100 %30.01 in0.5 miSouth (180°)3.5 mphFogFog
7:00 AM39.0 °F38.0 °F95 %30.04 in0.0 miCalmFogPartial Fog
7:00 AM39.2 °F37.4 °F93 %30.01 in0.2 miCalmFogFog
7:30 AM41.0 °F41.0 °F100 %30.04 in3.1 miWNW (300°)6.9 mphMostly Cloudy
8:00 AM43.0 °F42.0 °F96 %30.06 in3.0 miWest (280°)8.1 mphFogLight Fog
8:00 AM42.8 °F42.8 °F100 %30.04 inWest (280°)8.1 mphOvercast
8:30 AM42.8 °F42.8 °F100 %30.06 inWSW (250°)6.9 mphOvercast
9:00 AM42.8 °F41.0 °F93 %30.06 in3.1 miSW (230°)5.8 mphOvercast
9:00 AM42.0 °F42.0 °F98 %30.08 in3.0 miSW (230°)5.8 mphMist
9:30 AM42.8 °F42.8 °F100 %30.06 in3.7 miCalmOvercast
10:00 AM43.0 °F42.0 °F97 %30.12 in3.0 miWest (280°)3.5 mphRainLight Rain
10:00 AM42.8 °F42.8 °F100 %30.09 in2.8 miWest (280°)4.6 mphRainLight Rain
10:30 AM44.6 °F44.6 °F100 %30.12 in6.2 miWest (280°)8.1 mphOvercast
11:00 AM46.0 °F45.0 °F93 %30.14 in7.0 miWNW (290°)8.1 mphRainLight Rain
11:00 AM46.4 °F44.6 °F93 %30.12 in5.6 miWNW (290°)8.1 mphOvercast
11:30 AM46.4 °F46.4 °F100 %30.12 in6.2 miWNW (300°)8.1 mphPartly Cloudy
12:00 PM48.2 °F44.6 °F87 %30.12 inWNW (300°)6.9 mph
12:00 PM48.0 °F45.0 °F84 %30.16 in16.0 miWNW (300°)6.9 mphScattered Clouds
12:30 PM48.2 °F44.6 °F87 %30.12 in6.2 miNW (320°)10.4 mphMostly Cloudy
1:00 PM48.0 °F42.0 °F71 %30.16 in28.0 miNNW (340°)9.2 mphPartly Cloudy
1:00 PM48.2 °F41.0 °F76 %30.15 in6.2 miNNW (340°)9.2 mphMostly Cloudy
1:30 PM50.0 °F41.0 °F71 %30.15 in6.2 miNNW (340°)10.4 mphPartly Cloudy
2:00 PM49.0 °F40.0 °F63 %30.17 in28.0 miNNW (330°)9.2 mphScattered Clouds
2:00 PM48.2 °F39.2 °F71 %30.15 in6.2 miNNW (330°)9.2 mph
2:30 PM50.0 °F41.0 °F71 %30.15 in6.2 miNNW (340°)8.1 mph
3:00 PM48.2 °F39.2 °F71 %30.15 in6.2 miNorth (350°)8.1 mphPartly Cloudy
3:00 PM49.0 °F40.0 °F62 %30.18 in28.0 miNorth (350°)8.1 mphScattered Clouds
3:30 PM48.2 °F39.2 °F71 %30.18 in6.2 miNorth (360°)6.9 mphScattered Clouds
4:00 PM49.0 °F39.0 °F60 %30.19 in28.0 miNorth4.6 mphScattered Clouds
4:00 PM48.2 °F39.2 °F71 %30.18 in6.2 miNorth (360°)5.8 mph
4:30 PM48.2 °F37.4 °F66 %30.18 in6.2 miNNE (20°)4.6 mph
5:00 PM46.0 °F38.0 °F66 %30.21 in28.0 miNNE (20°)3.5 mph
5:00 PM46.4 °F37.4 °F71 %30.18 in6.2 miVariable3.5 mph
5:30 PM44.6 °F37.4 °F76 %30.18 in6.2 miVariable2.3 mph
6:00 PM42.8 °F39.2 °F87 %30.21 in6.2 miEast (90°)2.3 mph
6:00 PM44.0 °F38.0 °F73 %30.22 in37.0 miEast (90°)2.3 mphClear
6:30 PM41.0 °F37.4 °F87 %30.21 in6.2 miCalm
7:00 PM40.0 °F38.0 °F88 %30.22 in37.0 miEast (100°)2.3 mphClear
7:00 PM41.0 °F37.4 °F87 %30.21 in6.2 miEast (100°)2.3 mph
7:30 PM41.0 °F37.4 °F87 %30.21 in6.2 miSE (140°)3.5 mph
8:00 PM38.0 °F36.0 °F91 %30.24 in12.0 miSouth (180°)4.6 mphClear
8:00 PM39.2 °F35.6 °F87 %30.21 in6.2 miSouth (180°)4.6 mph
8:30 PM37.4 °F33.8 °F87 %30.24 in6.2 miCalm
9:00 PM35.6 °F35.6 °F100 %30.24 in6.2 miCalm
9:00 PM36.0 °F35.0 °F93 %30.26 in7.0 miCalmClear
9:30 PM37.4 °F35.6 °F93 %30.24 in6.2 miSE (140°)2.3 mph
10:00 PM37.0 °F36.0 °F93 %30.26 in2.0 miESE (120°)2.3 mphMist
10:00 PM37.4 °F35.6 °F93 %30.24 inESE (120°)2.3 mphMist
10:30 PM35.6 °F33.8 °F93 %30.24 inESE (110°)3.5 mphMist
11:00 PM34.0 °F33.0 °F92 %30.27 in0.0 miSSE (150°)2.3 mphFogPartial Fog
11:00 PM33.8 °F32.0 °F93 %30.24 in0.6 miSSE (150°)2.3 mphFogFog
11:30 PM33.8 °F32.0 °F93 %30.24 inESE (120°)3.5 mphFogFog
Hourly data recorded from LFRK, located miles away from Caen, France







STORIES FROM OUR PARTNERS